FENGYUN 1C DEB, 30120

Orbit data source: Space-Track

FENGYUN 1C DEB, 30120 is space debris in SSO originally from a launch on Mon, 10 May 1999 UTC launched from the Taiyaun Space Center, China (TSC). Fengyun 1C debris stems from the Chinese weather satellite Fengyun-1C, which was intentionally destroyed by a Chinese anti-satellite missile in 2007. This event dramatically increased the amount of space debris, with thousands of trackable fragments posing hazards to satellites and human spaceflight. The Fengyun 1C debris cloud has become a focal point in discussions about space sustainability and the need for international regulations to prevent the creation of new debris.

Loading next visibility...
Identifier
30120, 1999-025RZ
Orbit
SSO
Country
Flag of CNCN / PRC
Related business
Manufacturer
Unknown
Mission
Spacecraft
Bus & Motor
Unknown
Mass
Unknown
Launch date (UTC)
1999-05-10 (27 years ago)
Launch vehicle
Unknown
Launch site
Taiyaun Space Center, China (TSC)
Object type
Payload
Rocket body
Debris
Shape & HBR
Unknown shape, 0.1 m
Radar Cross Section
Medium (>0.1 m² and <1 m²)

Expand to show TLE details & history
Last TLE update: 6 hours ago

TLE from 6 hours ago
0 FENGYUN 1C DEB
1 30120U 99025RZ  26169.76155347  .00002495  00000-0  98278-3 0  9990
2 30120  98.8446 259.1980 0060385  27.3650  94.4049 14.29090094   521
Epoch: 2026-06-18T18:16Z
TLE epoch observation values (Epoch: 2026-06-18T18:16:38.219Z)
Latitude
56.58498°
Longitude
-88.39331°
Altitude
807.787 km
Speed
7.453 km/s
True Right ascension
06h 11m 03s
True Declination
56° 25' 40"
Sunlit
Object was in daylight at epoch
Visualization orbit readout
Latitude
Unknown
Longitude
Unknown
Altitude
Unknown
Speed
Unknown
Apparent Right ascension
Unknown
Apparent Declination
Unknown
Sunlit
N/A
Visualization observer readout
Local Sidereal Time
11:29:35
Azimuth
Unknown
Elevation
Unknown
Doppler factor
Unknown
Orbital elements
Apogee altitude
835.223 km
Perigee altitude
748.63 km
Semi-major axis
7,170.064 km
Eccentricity
0.00604
Inclination
98.8446°
RAAN
259.198°
Arg. of periapsis
27.365°
True anomaly
95.0944°
Mean anomaly
94.4049°
Eccentric anomaly
94.74969°
Mean motion
3.57486 °/min
Orbital period
100.7 mins
BSTAR
0.00098278
Loading maneuver chart data...
Computing Atmospheric mass density...

Documentation

Showing up to 5 results
|